Previsão horária em Aarle

Hoje, 18 Abril, Domingo

Tempo Temperatura Precipitação Vento Pressão Humidade
00:00 +3°C° 0 mm 2 m/s 766 mmHg 81%
01:00 +3°C° 0 mm 2 m/s 765 mmHg 81%
02:00 +3°C° 0 mm 2 m/s 765 mmHg 81%
03:00 +3°C° 0 mm 2 m/s 765 mmHg 80%
04:00 +4°C° 0 mm 1 m/s 765 mmHg 78%
05:00 +5°C° 0 mm 1 m/s 765 mmHg 76%
06:00 +5°C° 0 mm 1 m/s 765 mmHg 74%
07:00 +7°C° 0 mm 1 m/s 765 mmHg 68%
08:00 +8°C° 0 mm 2 m/s 765 mmHg 63%
09:00 +10°C° 0 mm 2 m/s 765 mmHg 57%
10:00 +12°C° 0 mm 2 m/s 765 mmHg 56%
11:00 +14°C° 0 mm 2 m/s 765 mmHg 54%
12:00 +14°C° 0 mm 3 m/s 764 mmHg 53%
13:00 +14°C° 0.1 mm 3 m/s 764 mmHg 55%
14:00 +14°C° 0.1 mm 3 m/s 764 mmHg 58%
15:00 +14°C° 0.1 mm 3 m/s 763 mmHg 61%
16:00 +13°C° 0.1 mm 3 m/s 764 mmHg 66%
17:00 +12°C° 0.1 mm 3 m/s 764 mmHg 71%
18:00 +11°C° 0.1 mm 3 m/s 764 mmHg 76%
19:00 +10°C° 0 mm 3 m/s 764 mmHg 80%
20:00 +9°C° 0 mm 3 m/s 764 mmHg 83%
21:00 +8°C° 0 mm 3 m/s 764 mmHg 87%
22:00 +7°C° 0 mm 3 m/s 764 mmHg 88%
23:00 +7°C° 0 mm 2 m/s 764 mmHg 88%

Amanhã, 19 Abril, Segunda-feira

Tempo Temperatura Precipitação Vento Pressão Humidade
00:00 +6°C° 0 mm 2 m/s 764 mmHg 89%
01:00 +6°C° 0 mm 2 m/s 764 mmHg 90%
02:00 +5°C° 0 mm 2 m/s 763 mmHg 90%
03:00 +5°C° 0 mm 2 m/s 763 mmHg 91%
04:00 +5°C° 0.1 mm 2 m/s 763 mmHg 90%
05:00 +6°C° 0.1 mm 2 m/s 763 mmHg 90%
06:00 +8°C° 0.1 mm 1 m/s 763 mmHg 89%
07:00 +9°C° 0.1 mm 1 m/s 763 mmHg 84%
08:00 +10°C° 0.1 mm 1 m/s 763 mmHg 80%
09:00 +12°C° 0.1 mm 1 m/s 763 mmHg 75%
10:00 +12°C° 0.5 mm 1 m/s 763 mmHg 72%
11:00 +13°C° 0.5 mm 1 m/s 763 mmHg 69%
12:00 +14°C° 0.5 mm 1 m/s 763 mmHg 66%
13:00 +14°C° 0.7 mm 1 m/s 762 mmHg 66%
14:00 +14°C° 0.7 mm 2 m/s 762 mmHg 66%
15:00 +14°C° 0.7 mm 2 m/s 762 mmHg 66%
16:00 +13°C° 0.3 mm 2 m/s 762 mmHg 70%
17:00 +13°C° 0.3 mm 2 m/s 762 mmHg 75%
18:00 +12°C° 0.3 mm 2 m/s 762 mmHg 79%
19:00 +10°C° 0 mm 2 m/s 762 mmHg 81%
20:00 +11°C° 0 mm 1 m/s 762 mmHg 84%
21:00 +10°C° 0 mm 1 m/s 762 mmHg 86%
22:00 +9°C° 0 mm 1 m/s 762 mmHg 87%
23:00 +9°C° 0 mm 1 m/s 762 mmHg 88%

Depois de amanhã, 20 Abril, Terça-feira

Tempo Temperatura Precipitação Vento Pressão Humidade
00:00 +9°C° 0 mm 1 m/s 762 mmHg 89%
01:00 +8°C° 0 mm 1 m/s 762 mmHg 90%
02:00 +8°C° 0 mm 1 m/s 762 mmHg 90%
03:00 +7°C° 0 mm 1 m/s 762 mmHg 91%
04:00 +8°C° 0 mm 1 m/s 762 mmHg 90%
05:00 +8°C° 0 mm 1 m/s 762 mmHg 89%
06:00 +9°C° 0 mm 1 m/s 762 mmHg 88%
07:00 +10°C° 0 mm 1 m/s 762 mmHg 81%
08:00 +12°C° 0 mm 1 m/s 762 mmHg 75%
09:00 +14°C° 0 mm 1 m/s 762 mmHg 69%
10:00 +15°C° 0 mm 1 m/s 762 mmHg 63%
11:00 +16°C° 0 mm 1 m/s 761 mmHg 57%
12:00 +18°C° 0 mm 1 m/s 761 mmHg 52%
13:00 +18°C° 0 mm 1 m/s 761 mmHg 51%
14:00 +18°C° 0 mm 1 m/s 761 mmHg 51%
15:00 +18°C° 0 mm 1 m/s 760 mmHg 51%
16:00 +16°C° 0 mm 1 m/s 760 mmHg 55%
17:00 +15°C° 0 mm 1 m/s 761 mmHg 60%
18:00 +14°C° 0 mm 2 m/s 761 mmHg 64%
19:00 +14°C° 0 mm 2 m/s 761 mmHg 66%
20:00 +13°C° 0 mm 2 m/s 761 mmHg 69%
21:00 +13°C° 0 mm 2 m/s 761 mmHg 71%
22:00 +12°C° 0 mm 2 m/s 761 mmHg 73%
23:00 +12°C° 0 mm 2 m/s 761 mmHg 75%

21 Abril, Quarta-feira

Tempo Temperatura Precipitação Vento Pressão Humidade
00:00 +12°C° 0 mm 2 m/s 761 mmHg 78%
01:00 +10°C° 0 mm 2 m/s 761 mmHg 76%
02:00 +10°C° 0 mm 2 m/s 761 mmHg 73%
03:00 +10°C° 0 mm 2 m/s 762 mmHg 71%
04:00 +9°C° 0 mm 2 m/s 762 mmHg 71%
05:00 +9°C° 0 mm 2 m/s 762 mmHg 71%
06:00 +9°C° 0 mm 2 m/s 762 mmHg 71%
07:00 +10°C° 0 mm 2 m/s 762 mmHg 69%
08:00 +10°C° 0 mm 3 m/s 763 mmHg 67%
09:00 +11°C° 0 mm 3 m/s 763 mmHg 65%
10:00 +12°C° 0 mm 3 m/s 763 mmHg 63%
11:00 +13°C° 0 mm 3 m/s 763 mmHg 61%
12:00 +14°C° 0 mm 3 m/s 763 mmHg 60%
13:00 +14°C° 0.1 mm 4 m/s 763 mmHg 60%
14:00 +13°C° 0.1 mm 5 m/s 763 mmHg 60%
15:00 +13°C° 0.1 mm 5 m/s 763 mmHg 60%
16:00 +12°C° 0 mm 5 m/s 763 mmHg 61%
17:00 +10°C° 0 mm 5 m/s 763 mmHg 62%
18:00 +8°C° 0 mm 5 m/s 764 mmHg 63%
19:00 +7°C° 0 mm 4 m/s 764 mmHg 67%
20:00 +6°C° 0 mm 4 m/s 765 mmHg 72%
21:00 +4°C° 0 mm 3 m/s 765 mmHg 77%
22:00 +4°C° 0 mm 3 m/s 766 mmHg 80%
23:00 +3°C° 0 mm 3 m/s 766 mmHg 84%

22 Abril, Quinta-feira

Tempo Temperatura Precipitação Vento Pressão Humidade
00:00 +3°C° 0 mm 2 m/s 766 mmHg 87%
01:00 +3°C° 0 mm 2 m/s 766 mmHg 88%
02:00 +3°C° 0 mm 2 m/s 766 mmHg 88%
03:00 +2°C° 0 mm 2 m/s 767 mmHg 89%
04:00 +3°C° 0 mm 2 m/s 767 mmHg 86%
05:00 +3°C° 0 mm 2 m/s 767 mmHg 83%
06:00 +4°C° 0 mm 2 m/s 767 mmHg 80%
07:00 +5°C° 0 mm 2 m/s 768 mmHg 73%
08:00 +7°C° 0 mm 2 m/s 768 mmHg 66%
09:00 +9°C° 0 mm 3 m/s 768 mmHg 59%
10:00 +10°C° 0 mm 3 m/s 768 mmHg 55%
11:00 +11°C° 0 mm 3 m/s 768 mmHg 51%
12:00 +12°C° 0 mm 3 m/s 768 mmHg 48%
13:00 +12°C° 0 mm 3 m/s 768 mmHg 47%
14:00 +13°C° 0 mm 4 m/s 768 mmHg 47%
15:00 +13°C° 0 mm 4 m/s 768 mmHg 47%
16:00 +12°C° 0 mm 4 m/s 768 mmHg 53%
17:00 +11°C° 0 mm 3 m/s 768 mmHg 59%
18:00 +10°C° 0 mm 3 m/s 768 mmHg 66%
19:00 +8°C° 0 mm 3 m/s 768 mmHg 69%
20:00 +7°C° 0 mm 3 m/s 769 mmHg 73%
21:00 +4°C° 0 mm 3 m/s 769 mmHg 76%
22:00 +4°C° 0 mm 3 m/s 769 mmHg 77%
23:00 +3°C° 0 mm 3 m/s 769 mmHg 78%

23 Abril, Sexta-feira

Tempo Temperatura Precipitação Vento Pressão Humidade
00:00 +3°C° 0 mm 2 m/s 769 mmHg 79%
01:00 +3°C° 0 mm 2 m/s 769 mmHg 79%
02:00 +3°C° 0 mm 2 m/s 769 mmHg 80%
03:00 +1°C° 0 mm 3 m/s 769 mmHg 81%
04:00 +3°C° 0 mm 2 m/s 769 mmHg 79%
05:00 +3°C° 0 mm 2 m/s 769 mmHg 76%
06:00 +4°C° 0 mm 2 m/s 769 mmHg 74%
07:00 +5°C° 0 mm 3 m/s 769 mmHg 67%
08:00 +8°C° 0 mm 3 m/s 769 mmHg 60%
09:00 +10°C° 0 mm 4 m/s 769 mmHg 53%
10:00 +12°C° 0 mm 4 m/s 769 mmHg 50%
11:00 +13°C° 0 mm 4 m/s 768 mmHg 46%
12:00 +14°C° 0 mm 4 m/s 768 mmHg 43%
13:00 +15°C° 0 mm 4 m/s 767 mmHg 42%
14:00 +15°C° 0 mm 4 m/s 767 mmHg 41%
15:00 +17°C° 0 mm 4 m/s 767 mmHg 40%
16:00 +14°C° 0 mm 4 m/s 766 mmHg 47%
17:00 +13°C° 0 mm 4 m/s 766 mmHg 55%
18:00 +12°C° 0 mm 3 m/s 766 mmHg 62%
19:00 +11°C° 0 mm 3 m/s 766 mmHg 64%
20:00 +10°C° 0 mm 3 m/s 766 mmHg 66%
21:00 +8°C° 0 mm 3 m/s 766 mmHg 69%
22:00 +8°C° 0 mm 3 m/s 766 mmHg 71%
23:00 +7°C° 0 mm 3 m/s 765 mmHg 73%
Mostrar mais